ELECTRON KICK STAGE R/B, 58901

Orbit data source: Space-Track

ELECTRON KICK STAGE R/B, 58901 is space debris in SSO originally from a launch on Wed, 31 Jan 2024 UTC launched from the Rocket Lab Launch Complex (RLLC). Debris objects in space refer to the collection of defunct objects orbiting the Earth. Examples of debris include non-operational satellites, rocket bodies, and fragments generated from explosions, collisions, or faulty payload assembly.

Loading next visibility...
Identifier
58901, 2024-022C
Orbit
SSO
Country
Flag of USUS
Related business
Manufacturer
Rocket Lab
Mission
Spacecraft
Bus & Motor
KICK STAGE, CURIE
Mass
~43 kg wet, ~43 kg dry
Launch date (UTC)
2024-01-31 (2 years ago)
Launch vehicle
Unknown
Launch site
Rocket Lab Launch Complex (RLLC)
Object type
Payload
Rocket body
Debris
Shape & HBR
Trunc Cone, 0.7 m
Radar Cross Section
0.760 m², Medium (>0.1 m² and < 1m²)

Expand to show TLE details & history
Last TLE update: 10 hours ago

TLE from 10 hours ago
0 ELECTRON KICK STAGE R/B
1 58901U 24022C   26101.07111257  .00041785  00000-0  69177-3 0  9995
2 58901  97.4141 315.9996 0005189 345.5269  14.5834 15.52060017122333
Epoch: 2026-04-11T01:42Z
TLE epoch observation values (Epoch: 2026-04-11T01:42:24.126Z)
Latitude
0.00001°
Longitude
91.10339°
Altitude
410.436 km
Speed
7.666 km/s
True Right ascension
21h 03m 59s
True Declination
0° 00' 00"
Sunlit
Object was in daylight at epoch
Visualization orbit readout
Latitude
Unknown
Longitude
Unknown
Altitude
Unknown
Speed
Unknown
Apparent Right ascension
Unknown
Apparent Declination
Unknown
Sunlit
N/A
Visualization observer readout
Local Sidereal Time
17:36:15
Azimuth
Unknown
Elevation
Unknown
Doppler factor
Unknown
Orbital elements
Apogee altitude
411.157 km
Perigee altitude
404.115 km
Semi-major axis
6,785.773 km
Eccentricity
0.00052
Inclination
97.4141°
RAAN
315.9996°
Arg. of periapsis
345.5269°
True anomaly
14.59838°
Mean anomaly
14.5834°
Eccentric anomaly
14.59089°
Mean motion
3.88279 °/min
Orbital period
92.72 mins
BSTAR
0.00069177
Loading maneuver chart data...
Computing Atmospheric mass density...
Loading historical data...
Loading historical data...
Loading historical data...
Loading historical data...
Loading historical data...
Loading historical data...
Loading historical data...

Documentation

Showing up to 5 results
|